BAW4563 EGKK-LTFM

Flight info

Callsign BAW4563
Flight time N/A
Altitude 39000
Route ODVIK Y311 DVR UL9 KONAN UL607 KOK DCT REMBA DCT SPI DCT MATUG DCT BOMBI DCT TENLO DCT LAMSI DCT ARSIN DCT GITAS DCT MAVIR DCT GOVIN DCT PADGU DCT OVDOT DCT NULGO DCT TIMUR L606 GASRU T390 RILEX
Aircraft A333/H-SDE3GHIJ2J3J5M1RVWXY/LB2D1

Departure

Time 2026-05-04 15:06
Airport London Gatwick Airport (EGKK)

Arrival

Time N/A
Airport İstanbul Airport (LTFM)
Time Latitude Longitude Altitude Speed Heading
2026-05-04 14:32 51.15478 -0.18916 219 ft 0 kts 258°
2026-05-04 14:52 51.15481 -0.18891 218 ft 3 kts 255°
2026-05-04 14:52 51.15486 -0.18861 213 ft 3 kts 236°
2026-05-04 14:52 51.15501 -0.18839 218 ft 3 kts 189°
2026-05-04 14:53 51.15510 -0.18838 216 ft 0 kts 172°
2026-05-04 14:56 51.15506 -0.18836 208 ft 1 kts 167°
2026-05-04 14:56 51.15473 -0.18811 214 ft 7 kts 155°
2026-05-04 14:56 51.15426 -0.18784 214 ft 7 kts 165°
2026-05-04 14:57 51.15373 -0.18765 216 ft 8 kts 167°
2026-05-04 14:57 51.15315 -0.18743 216 ft 9 kts 167°
2026-05-04 14:57 51.15252 -0.18721 214 ft 10 kts 167°
2026-05-04 14:57 51.15182 -0.18698 214 ft 10 kts 175°
2026-05-04 14:58 51.15136 -0.18731 218 ft 5 kts 235°
2026-05-04 14:58 51.15124 -0.18782 218 ft 6 kts 255°
2026-05-04 14:58 51.15112 -0.18867 217 ft 10 kts 257°
2026-05-04 14:58 51.15095 -0.18992 214 ft 13 kts 257°
2026-05-04 14:59 51.15073 -0.19150 217 ft 16 kts 258°
2026-05-04 14:59 51.15048 -0.19339 217 ft 19 kts 257°
2026-05-04 14:59 51.14985 -0.19792 215 ft 23 kts 257°
2026-05-04 15:00 51.14948 -0.20057 211 ft 26 kts 258°
2026-05-04 15:00 51.14909 -0.20344 218 ft 28 kts 258°
2026-05-04 15:00 51.14867 -0.20654 215 ft 29 kts 257°
2026-05-04 15:01 51.14794 -0.21146 218 ft 0 kts 250°
2026-05-04 15:01 51.14783 -0.21203 214 ft 8 kts 253°
2026-05-04 15:02 51.14769 -0.21290 215 ft 8 kts 257°
2026-05-04 15:02 51.14748 -0.21371 218 ft 7 kts 230°
2026-05-04 15:02 51.14706 -0.21389 216 ft 6 kts 173°
2026-05-04 15:02 51.14670 -0.21362 217 ft 6 kts 150°
2026-05-04 15:03 51.14633 -0.21335 214 ft 5 kts 161°
2026-05-04 15:03 51.14628 -0.21332 213 ft 0 kts 161°
2026-05-04 15:04 51.14626 -0.21331 217 ft 2 kts 161°
2026-05-04 15:04 51.14620 -0.21328 217 ft 4 kts 161°
2026-05-04 15:05 51.14532 -0.21239 219 ft 25 kts 124°
2026-05-04 15:05 51.14557 -0.20802 214 ft 66 kts 78°
2026-05-04 15:05 51.14707 -0.19744 214 ft 129 kts 78°
2026-05-04 15:05 51.14888 -0.18140 613 ft 154 kts 83°
2026-05-04 15:06 51.14887 -0.16440 1322 ft 147 kts 98°
2026-05-04 15:06 51.14824 -0.14949 1848 ft 125 kts 82°
2026-05-04 15:06 51.15027 -0.13672 2134 ft 116 kts 68°
2026-05-04 15:07 51.15830 -0.11382 2374 ft 118 kts 57°
2026-05-04 15:07 51.16298 -0.10278 2456 ft 121 kts 67°
2026-05-04 15:07 51.16424 -0.08960 2476 ft 127 kts 105°
2026-05-04 15:07 51.16318 -0.07620 2631 ft 121 kts 78°
2026-05-04 15:08 51.16686 -0.06373 2715 ft 135 kts 60°
2026-05-04 15:08 51.17062 -0.04886 3056 ft 153 kts 76°
2026-05-04 15:08 51.17134 -0.03139 3540 ft 160 kts 97°
2026-05-04 15:08 51.16750 -0.01516 3988 ft 152 kts 118°
2026-05-04 15:09 51.16554 -0.00203 4197 ft 154 kts 82°